Wind_Speed
71 74 76 77 78 80 80 80 80 80 79 78 79 80 81 83 84 86 87 88 88 89 91 91 91 91 91 92 95 99 104 106 108 105 101 93 92 90 87 88 87 85 86
75 77 77 78 78 78 78 78 78 78 79 80 81 83 85 86 87 88 88 89 90 90 92 93 94 95 95 95 95 95 96 100 105 110 111 106 97 93 92 90 90 88 87
77 78 78 79 79 78 79 80 79 80 81 84 86 87 87 87 88 90 91 92 93 93 93 94 94 95 95 96 97 98 98 99 100 101 101 108 106 97 93 92 92 92 91
77 78 79 78 78 79 79 80 82 83 84 84 85 87 88 89 89 90 88 85 82 80 79 78 79 81 82 84 85 88 91 94 96 100 101 99 101 102 99 93 90 91 90
77 76 77 77 78 79 80 81 82 83 84 86 87 87 86 83 80 77 74 73 72 71 71 72 73 74 75 77 78 79 81 84 86 89 92 96 99 102 102 101 96 91 89
74 77 78 78 79 80 81 82 83 84 86 85 81 77 73 70 69 68 68 67 66 66 67 68 69 69 69 69 70 71 73 74 75 78 81 83 85 94 101 103 102 97 90
76 77 78 78 80 81 82 83 84 82 78 73 68 64 63 64 65 65 66 67 68 70 71 70 69 68 66 65 65 66 66 68 69 70 72 74 76 79 86 94 102 103 99
78 78 79 80 81 82 82 81 76 70 67 63 60 61 61 64 64 65 67 70 71 72 72 71 68 65 63 62 61 62 62 63 65 67 67 67 70 72 74 78 84 93 100
78 80 82 82 81 81 77 69 65 63 60 59 59 61 62 63 65 67 70 71 70 68 65 63 62 60 58 56 54 54 50 51 52 51 52 53 58 64 67 71 72 76 83
81 81 80 78 75 69 65 61 59 58 59 60 61 62 63 65 67 68 69 68 63 60 57 56 53 52 48 45 47 48 44 46 46 45 45 45 45 47 49 53 61 68 72
81 77 73 67 62 60 58 56 56 58 59 61 62 63 65 66 66 66 65 62 59 59 55 47 43 44 44 44 42 41 42 40 40 44 45 46 48 50 52 54 57 58 60
72 67 62 60 58 56 55 56 58 59 60 61 61 62 63 64 64 61 59 59 58 53 46 40 39 41 42 42 41 41 41 41 41 41 43 45 48 52 54 56 59 61 62
64 61 58 56 56 56 57 58 59 60 61 61 61 61 61 60 57 58 57 56 54 50 42 41 40 41 43 43 44 44 44 43 42 43 45 48 52 54 56 58 60 63 64
60 59 58 58 57 57 58 59 60 62 63 61 61 60 57 57 57 55 54 53 50 43 40 42 42 42 44 44 45 45 45 46 47 48 49 52 55 58 60 62 63 65 66
59 59 59 59 58 58 59 60 62 64 62 61 59 59 59 58 57 55 53 49 43 38 38 39 40 41 43 46 48 48 48 48 49 50 52 54 56 60 62 66 67 67 67
58 59 59 59 59 60 61 63 63 62 61 60 56 58 60 60 58 55 49 45 36 34 35 36 39 41 44 46 46 47 50 51 50 48 47 46 49 54 56 58 57 58 58
57 57 58 60 62 63 63 61 60 62 60 55 54 57 59 58 57 52 46 37 32 33 34 37 39 41 43 44 45 46 46 45 41 36 35 40 47 51 49 46 45 44 42
57 58 61 63 64 65 66 63 60 56 50 51 53 55 57 56 54 49 38 30 31 32 34 35 38 39 40 41 42 41 38 34 31 32 36 39 43 42 41 40 38 34 34
56 53 57 61 64 66 64 59 55 50 48 48 52 56 55 53 47 38 27 27 30 32 32 34 35 35 37 38 38 37 33 31 32 32 35 36 38 37 37 37 34 31 28
57 62 66 63 61 59 57 57 55 51 49 49 50 54 54 47 39 28 26 27 28 29 30 32 32 33 34 34 34 35 33 33 32 33 34 34 36 36 34 36 34 30 26
64 71 72 65 62 61 60 57 54 53 52 51 50 51 48 41 30 28 29 28 27 27 28 30 29 30 31 31 31 32 32 31 32 32 32 32 32 32 37 36 31 29 27
74 75 70 65 65 66 64 60 56 52 51 52 52 49 43 35 27 27 28 27 26 25 26 27 27 28 28 29 29 30 30 29 27 27 28 30 30 31 36 31 26 26 24
79 79 71 69 69 67 65 64 62 60 56 52 45 42 38 29 27 27 25 24 23 23 24 25 26 28 29 29 29 28 29 29 27 25 25 26 27 30 30 25 21 22 20
83 73 70 69 69 67 64 60 56 53 51 48 44 39 32 27 26 24 22 21 21 22 23 26 28 29 30 30 30 30 28 29 28 27 25 23 24 25 26 21 19 18 18
69 68 72 71 66 61 56 54 50 44 41 37 35 31 26 24 24 21 19 18 19 21 23 26 28 29 30 30 30 30 29 27 27 27 26 25 24 24 24 23 20 20 19
64 66 62 57 51 47 40 36 35 33 31 30 26 23 22 21 20 18 16 17 18 21 24 27 29 30 30 30 30 30 29 28 26 25 24 24 24 24 23 22 21 19 15
Wind_Direction
286 285 286 286 285 285 286 287 288 289 289 288 287 287 287 288 288 288 286 285 284 283 282 280 278 277 274 272 270 270 270 269 266 262 263 264 263 259 255 256 258 257 254
286 286 286 286 288 289 290 291 290 290 290 290 291 291 291 290 289 287 286 285 283 282 280 279 278 277 276 275 273 270 268 267 266 262 260 263 264 263 262 259 256 256 257
287 288 290 291 292 293 293 293 293 293 294 293 292 291 290 289 289 288 288 287 286 285 283 281 279 278 276 274 273 271 269 268 266 264 260 259 260 262 260 260 260 258 257
290 291 292 292 293 293 293 293 294 293 293 293 293 293 292 292 291 290 289 288 286 285 283 282 280 278 277 276 274 273 270 268 266 264 263 259 258 258 260 258 256 255 255
292 292 292 292 292 292 292 292 293 294 295 295 294 294 294 293 291 290 289 288 287 287 286 285 284 282 281 279 277 275 274 272 269 267 264 261 259 258 257 258 256 252 251
292 291 291 291 291 292 293 294 295 295 295 295 294 292 291 290 290 290 291 290 290 290 288 286 286 283 282 281 279 278 276 274 272 270 268 264 261 258 256 255 257 255 250
289 289 291 292 293 294 295 296 296 296 294 293 292 291 291 291 292 292 292 293 294 293 292 291 289 287 284 281 279 277 276 275 273 271 268 267 263 260 256 254 252 254 254
290 291 293 294 295 295 296 296 295 293 293 293 292 292 292 293 293 293 294 295 296 295 294 293 291 288 285 283 280 279 278 276 274 272 269 266 264 263 261 257 254 252 252
292 293 295 295 295 295 295 294 293 293 294 293 293 293 294 294 294 295 295 296 297 296 295 294 290 288 285 286 285 283 283 281 278 276 272 269 266 265 264 263 260 255 252
294 295 294 294 294 294 294 294 294 294 293 293 294 294 294 295 296 298 298 298 298 296 296 294 292 290 288 284 283 284 283 280 275 274 273 270 269 269 268 266 263 260 257
295 293 293 294 293 294 294 293 292 292 292 293 293 295 297 298 299 299 300 300 298 298 297 293 288 286 286 284 282 282 283 281 277 273 271 269 269 269 269 270 269 267 264
292 293 293 292 293 293 292 292 292 292 292 293 294 296 298 299 300 301 301 300 300 299 296 291 288 290 292 293 292 289 286 284 282 279 277 275 272 270 269 269 270 270 268
293 292 292 293 293 292 292 291 292 294 295 298 298 298 299 300 301 302 303 303 300 298 292 292 292 292 293 294 294 293 292 288 284 281 279 277 276 274 273 271 270 269 267
292 292 292 292 292 291 291 292 294 297 300 301 301 300 300 301 304 305 303 301 296 289 288 289 290 290 290 291 293 292 291 290 288 286 284 282 281 280 279 277 273 273 268
292 293 293 293 293 294 294 296 298 299 300 301 301 301 303 304 304 305 303 297 289 280 283 286 289 293 295 297 297 294 293 291 290 288 286 284 283 282 283 283 282 279 275
294 293 293 294 295 295 295 296 297 297 299 300 299 299 301 304 306 306 302 294 283 283 287 290 294 297 298 298 298 299 299 297 295 291 287 285 286 290 291 288 284 281 278
291 293 295 296 295 295 295 295 295 297 297 296 295 297 299 304 306 304 300 287 282 288 292 295 297 299 302 304 304 304 302 300 296 289 289 293 295 298 295 289 286 285 282
294 294 294 294 295 295 295 296 295 293 292 292 293 296 301 305 304 302 292 282 289 292 293 297 301 304 307 309 308 307 304 298 291 288 295 299 304 305 300 293 289 291 289
295 304 305 296 294 293 295 296 293 290 289 288 291 296 302 305 303 295 280 283 290 293 295 300 305 308 310 311 312 314 303 295 293 292 297 303 305 302 306 303 291 290 298
305 305 309 305 295 294 297 296 290 288 287 286 289 295 302 304 299 284 282 287 291 294 300 305 306 309 310 312 311 318 311 299 298 297 301 304 303 302 306 308 299 283 287
308 310 306 297 289 291 294 292 288 283 282 283 286 292 299 300 287 282 287 290 293 296 304 304 305 309 312 317 315 312 321 316 301 299 303 308 309 304 309 308 299 286 273
304 306 296 290 289 289 289 287 284 285 282 280 282 288 294 291 277 280 285 288 291 297 304 303 304 309 312 315 320 318 316 323 317 312 310 314 315 311 316 307 294 290 278
304 305 297 293 292 290 286 282 279 278 277 276 281 283 288 275 272 279 282 286 290 296 304 307 307 309 310 312 316 320 322 319 322 321 316 318 320 324 329 320 302 294 283
305 300 298 296 293 288 283 278 275 273 270 268 269 274 273 263 270 276 279 285 292 300 305 307 309 309 308 309 313 313 318 323 323 324 328 325 327 325 332 327 317 309 300
303 302 301 298 293 287 281 272 265 267 264 260 257 259 251 256 266 271 278 287 295 303 308 309 310 312 313 311 309 311 312 315 321 323 324 329 333 329 331 337 327 319 305
306 306 303 300 294 290 275 265 252 255 252 246 242 234 240 253 258 264 275 287 297 307 312 315 315 315 316 315 311 307 308 311 312 317 321 322 323 330 333 332 339 337 329
Height
5671 5666 5662 5658 5653 5648 5643 5639 5635 5630 5625 5621 5616 5611 5606 5600 5595 5591 5587 5583 5579 5575 5570 5568 5566 5564 5563 5562 5560 5559 5559 5558 5561 5575 5578 5584 5589 5594 5600 5601 5603 5607 5612
5654 5648 5642 5637 5632 5628 5623 5618 5613 5609 5604 5598 5592 5586 5581 5575 5569 5565 5561 5557 5553 5549 5545 5541 5537 5534 5533 5530 5529 5530 5531 5529 5529 5540 5549 5553 5557 5562 5567 5574 5579 5583 5587
5633 5627 5622 5617 5612 5607 5602 5596 5591 5586 5580 5575 5569 5563 5556 5550 5545 5539 5534 5530 5524 5519 5515 5511 5508 5504 5502 5499 5497 5497 5497 5498 5499 5503 5518 5520 5527 5529 5536 5541 5549 5557 5560
5614 5608 5602 5596 5592 5586 5580 5575 5570 5564 5557 5551 5545 5538 5530 5524 5518 5512 5507 5502 5497 5492 5487 5483 5479 5475 5472 5469 5466 5465 5464 5465 5466 5468 5479 5488 5492 5499 5500 5509 5517 5522 5533
5594 5588 5581 5576 5571 5566 5560 5555 5549 5542 5535 5528 5521 5514 5506 5498 5493 5488 5483 5479 5474 5470 5465 5460 5455 5451 5447 5443 5440 5439 5436 5434 5436 5436 5442 5451 5460 5462 5468 5472 5483 5491 5501
5574 5568 5562 5557 5552 5546 5540 5534 5528 5521 5513 5506 5498 5492 5485 5478 5472 5467 5462 5458 5454 5449 5444 5439 5433 5429 5425 5421 5417 5413 5411 5409 5409 5408 5411 5416 5424 5426 5432 5441 5446 5453 5472
5556 5550 5544 5537 5531 5525 5518 5512 5505 5498 5491 5484 5477 5472 5466 5460 5455 5449 5444 5438 5434 5428 5421 5416 5412 5407 5402 5400 5396 5392 5389 5386 5385 5385 5386 5387 5392 5392 5398 5406 5411 5418 5432
5537 5530 5523 5516 5510 5503 5496 5489 5483 5477 5471 5465 5460 5454 5450 5443 5438 5432 5426 5421 5414 5406 5399 5393 5388 5384 5379 5377 5374 5372 5369 5366 5363 5362 5363 5365 5364 5365 5367 5370 5379 5389 5399
5517 5510 5502 5495 5487 5480 5474 5468 5463 5458 5453 5448 5443 5438 5433 5426 5420 5414 5408 5401 5395 5388 5381 5373 5367 5363 5360 5356 5352 5352 5351 5348 5343 5343 5342 5343 5343 5343 5344 5347 5353 5356 5366
5494 5489 5481 5473 5466 5460 5455 5450 5445 5441 5437 5432 5427 5422 5416 5410 5402 5396 5388 5381 5375 5369 5363 5357 5350 5344 5343 5341 5338 5336 5336 5332 5330 5329 5328 5328 5327 5326 5326 5327 5328 5332 5338
5473 5466 5460 5454 5448 5444 5439 5434 5430 5426 5422 5417 5412 5405 5398 5392 5386 5378 5370 5362 5356 5352 5346 5341 5336 5332 5329 5326 5324 5322 5321 5319 5317 5316 5316 5314 5312 5311 5311 5311 5311 5312 5317
5452 5447 5442 5438 5433 5429 5424 5419 5414 5410 5406 5401 5396 5389 5382 5375 5369 5361 5353 5346 5339 5334 5330 5327 5323 5320 5316 5313 5310 5308 5306 5305 5304 5303 5301 5300 5297 5296 5295 5295 5293 5293 5294
5435 5430 5426 5422 5418 5414 5409 5404 5399 5393 5389 5384 5378 5373 5367 5360 5353 5345 5338 5330 5324 5319 5317 5314 5310 5308 5303 5300 5296 5294 5292 5290 5289 5288 5286 5283 5279 5277 5276 5275 5274 5272 5274
5420 5416 5412 5407 5403 5399 5394 5389 5383 5376 5371 5365 5360 5356 5351 5345 5338 5331 5324 5317 5311 5307 5306 5303 5299 5296 5292 5289 5285 5281 5278 5275 5273 5271 5269 5265 5261 5257 5255 5251 5252 5249 5250
5406 5402 5397 5392 5387 5382 5377 5371 5366 5359 5355 5350 5344 5338 5333 5329 5323 5316 5309 5302 5298 5296 5295 5292 5288 5284 5280 5274 5270 5266 5263 5260 5257 5254 5250 5247 5242 5237 5233 5228 5225 5223 5222
5391 5386 5381 5376 5371 5366 5360 5355 5348 5344 5339 5334 5328 5323 5318 5312 5306 5301 5294 5288 5285 5284 5282 5280 5276 5272 5267 5262 5257 5252 5246 5242 5238 5235 5231 5228 5224 5219 5213 5207 5202 5199 5197
5375 5370 5364 5359 5354 5348 5343 5339 5335 5327 5323 5318 5313 5308 5302 5298 5291 5286 5281 5275 5274 5273 5270 5267 5263 5259 5254 5248 5243 5238 5232 5226 5222 5219 5217 5214 5209 5203 5195 5189 5184 5181 5179
5358 5353 5347 5342 5336 5331 5326 5322 5317 5314 5309 5302 5297 5294 5288 5284 5277 5272 5268 5265 5264 5262 5259 5256 5252 5247 5242 5236 5230 5225 5219 5214 5211 5209 5206 5202 5195 5188 5182 5176 5172 5168 5165
5342 5336 5331 5325 5319 5313 5308 5304 5300 5296 5294 5291 5284 5278 5275 5271 5264 5259 5257 5257 5255 5253 5249 5245 5241 5237 5232 5226 5220 5214 5209 5206 5202 5199 5194 5190 5184 5178 5172 5165 5162 5158 5154
5326 5320 5313 5307 5301 5296 5291 5287 5283 5281 5279 5276 5272 5267 5262 5258 5252 5249 5249 5248 5245 5243 5239 5235 5232 5228 5223 5218 5212 5206 5200 5196 5192 5188 5184 5180 5174 5168 5163 5157 5151 5149 5146
5307 5300 5293 5287 5282 5277 5273 5270 5266 5264 5263 5261 5258 5255 5251 5247 5244 5242 5240 5238 5236 5234 5230 5227 5223 5219 5215 5210 5204 5199 5193 5187 5182 5178 5175 5170 5164 5159 5153 5147 5142 5139 5137
5288 5280 5272 5266 5261 5257 5253 5250 5248 5247 5246 5245 5243 5241 5239 5236 5235 5234 5233 5231 5228 5226 5223 5219 5215 5212 5207 5203 5198 5192 5187 5182 5176 5170 5166 5162 5156 5151 5144 5137 5133 5130 5128
5266 5257 5248 5242 5236 5232 5229 5227 5226 5226 5227 5228 5228 5228 5226 5225 5226 5226 5224 5222 5220 5218 5214 5211 5208 5204 5200 5195 5191 5186 5180 5175 5170 5166 5160 5155 5150 5144 5136 5130 5126 5124 5122
5243 5232 5224 5216 5209 5204 5202 5201 5202 5204 5206 5209 5212 5214 5214 5215 5216 5216 5215 5214 5212 5210 5207 5204 5200 5196 5192 5187 5183 5178 5174 5168 5163 5159 5154 5149 5144 5139 5133 5127 5123 5120 5117
5218 5209 5199 5189 5179 5174 5172 5174 5180 5184 5188 5192 5196 5200 5202 5205 5206 5207 5206 5206 5204 5202 5199 5197 5193 5188 5184 5179 5174 5170 5166 5162 5157 5152 5148 5143 5139 5135 5130 5124 5119 5116 5112
5200 5188 5176 5165 5157 5152 5151 5154 5161 5168 5173 5179 5184 5189 5193 5196 5198 5198 5198 5198 5197 5194 5192 5189 5185 5181 5176 5171 5166 5162 5158 5154 5151 5147 5143 5138 5135 5131 5126 5122 5117 5112 5109